Wind_Speed
29 30 30 31 31 31 32 32 32 33 33 34 35 36 37 37 38 38 39 39 39 40 41 41 41 42 42 42 42 43 43 43 43 43 43 43 43 43 44 43 43 43 42
30 30 30 31 32 32 33 34 34 35 35 36 36 37 39 40 40 40 40 41 41 42 42 43 43 43 44 44 45 45 45 45 45 45 45 45 45 45 45 45 45 45 44
30 31 31 32 32 33 34 35 36 37 37 38 39 40 41 41 42 42 43 43 43 44 44 45 45 46 46 46 46 46 47 47 47 48 48 48 48 47 47 48 47 47 46
32 33 33 33 34 35 36 37 38 39 40 41 42 42 43 43 44 44 45 46 46 47 46 48 48 48 49 49 49 49 49 49 49 50 50 51 50 50 50 50 50 50 49
33 34 34 35 36 37 38 40 40 42 43 44 44 45 45 46 47 47 47 47 48 49 49 50 51 51 52 53 53 53 53 53 53 53 53 53 53 54 53 53 53 52 52
35 36 37 38 39 40 41 42 43 45 45 46 46 47 47 48 49 49 49 50 50 50 51 52 53 54 54 55 56 56 57 57 57 57 57 57 57 57 57 57 56 56 55
37 38 39 40 41 42 43 44 45 46 47 48 48 48 48 50 51 51 52 52 52 53 53 54 55 56 56 57 58 58 59 59 60 60 61 61 61 60 60 60 59 59 59
39 40 41 42 43 44 45 46 47 48 48 50 50 51 51 51 52 52 53 54 55 56 56 57 58 59 60 61 61 62 62 62 63 63 64 64 64 64 64 63 63 63 62
41 43 44 44 45 46 47 48 49 50 51 52 53 55 55 55 54 54 55 56 57 58 59 60 61 62 63 63 64 64 65 65 66 66 67 67 67 67 66 66 66 65 65
43 44 45 46 47 48 49 50 51 52 53 54 56 57 57 58 58 57 56 56 58 59 59 61 62 62 62 63 63 65 66 67 67 67 68 68 68 68 69 69 68 68 67
44 45 46 47 48 50 51 51 53 54 55 56 56 57 58 58 60 60 59 57 58 60 61 61 61 61 62 62 63 64 65 65 66 66 67 67 67 67 68 68 69 67 67
45 46 47 48 50 51 52 53 55 56 56 57 57 57 58 59 60 61 61 60 60 60 60 59 59 60 60 61 62 62 63 63 63 64 64 64 65 64 65 65 65 65 64
46 47 48 50 51 53 54 55 56 57 58 58 58 58 59 60 60 61 62 61 60 58 57 56 56 57 58 59 59 60 60 60 60 60 60 60 60 59 58 57 58 60 60
47 49 50 52 53 54 55 57 58 58 58 58 59 59 59 60 60 60 61 61 59 56 54 53 54 55 56 57 57 57 56 56 56 55 54 54 53 52 51 51 51 52 54
49 51 52 53 55 56 57 58 59 59 59 59 59 59 59 59 59 59 59 58 57 55 52 51 51 52 53 52 53 53 52 52 51 49 48 48 46 45 45 45 46 47 49
51 52 54 55 56 57 57 58 59 59 58 58 58 58 58 58 58 57 55 54 54 54 52 49 49 49 50 50 49 49 48 47 46 44 43 41 40 39 39 41 42 43 44
53 54 55 56 57 57 57 58 58 57 56 56 56 56 57 57 56 54 53 52 52 52 51 49 48 48 48 47 45 45 44 43 40 39 38 37 36 36 36 36 37 37 38
54 55 56 56 57 57 56 56 56 55 55 54 55 55 55 55 54 52 52 51 51 51 50 48 46 45 44 43 41 41 40 39 37 36 34 33 32 32 32 31 29 29 30
56 56 56 55 56 55 55 54 54 54 54 54 54 54 53 52 52 51 51 50 48 47 46 46 43 42 41 39 38 37 36 35 34 31 30 29 28 27 26 25 23 23 23
55 55 54 54 54 53 53 53 53 53 53 53 52 52 51 51 51 50 49 47 46 44 43 42 40 38 37 36 36 34 31 30 29 26 25 25 24 22 21 19 18 17 17
54 54 53 53 52 52 53 53 52 52 51 51 51 50 50 50 49 48 46 44 42 40 39 38 36 35 34 34 33 30 27 26 25 24 23 22 20 18 17 16 15 14 13
53 54 53 52 52 52 52 51 51 50 50 50 49 49 48 48 46 44 42 40 38 37 36 34 33 32 32 31 29 27 26 23 21 20 19 16 15 14 13 13 11 11 11
53 53 52 51 50 51 50 50 50 49 49 48 48 48 47 45 43 40 38 36 35 35 34 33 31 31 29 28 26 23 22 19 17 16 15 13 12 11 11 9 10 10 10
52 51 49 49 50 50 49 49 49 48 48 47 46 45 43 40 38 37 35 33 32 32 32 31 30 28 25 23 22 21 19 17 15 15 13 11 10 10 10 9 9 10 11
50 49 48 49 49 48 48 47 47 46 45 44 43 41 38 36 34 33 32 30 30 29 28 27 26 24 22 21 21 19 17 15 13 12 10 9 9 8 8 8 9 10 11
48 47 47 47 47 46 46 45 45 44 42 41 39 37 34 32 31 30 28 28 27 25 24 23 22 21 20 19 18 16 14 12 11 9 8 7 7 8 7 7 8 9 10
Wind_Direction
273 273 275 276 277 278 278 279 279 280 281 281 281 281 282 283 282 282 281 280 280 279 279 278 278 277 277 277 277 277 277 277 277 277 277 277 276 276 276 276 277 277 277
273 274 275 276 277 278 279 281 280 281 282 283 283 284 284 283 283 282 281 280 280 279 279 279 279 279 278 278 278 278 277 276 276 276 276 276 276 276 276 276 276 277 276
273 274 276 277 278 279 281 282 282 282 283 284 284 284 285 285 283 282 282 282 281 280 280 280 279 279 279 279 279 278 278 277 276 276 276 276 276 276 275 275 276 275 275
274 275 277 278 279 281 282 283 284 284 285 285 285 285 286 286 285 284 284 283 282 281 281 281 280 280 280 280 279 279 278 277 277 276 276 276 275 275 275 275 275 274 274
275 276 278 279 280 282 284 285 286 286 286 286 286 286 285 285 285 285 284 284 283 281 281 281 281 280 280 280 279 279 278 277 276 276 276 275 275 275 274 274 273 273 272
276 277 279 281 282 283 285 286 286 286 287 287 286 286 286 286 285 286 285 285 284 283 282 282 281 281 281 280 280 279 278 277 276 275 275 274 274 274 274 273 272 272 271
277 278 280 282 283 284 286 287 288 288 288 288 287 286 286 287 287 287 286 285 285 285 284 284 283 282 282 281 281 279 278 277 276 275 274 274 274 273 273 272 271 271 271
278 280 281 283 284 285 287 288 289 290 290 289 288 288 287 287 287 288 287 287 286 285 285 284 284 284 283 282 281 280 279 278 277 275 274 273 272 272 271 271 271 270 270
279 281 282 283 285 286 287 288 289 290 290 290 290 290 290 290 288 288 288 288 287 286 285 286 286 285 284 283 282 281 279 279 278 277 275 274 273 272 270 270 270 269 269
280 281 282 284 285 287 288 289 289 291 291 291 292 292 292 292 292 291 290 289 289 288 287 287 287 287 286 285 284 283 282 281 279 278 276 275 274 273 271 270 269 269 269
281 282 283 285 286 287 288 289 289 291 292 293 293 293 293 293 293 293 291 290 290 289 288 287 288 288 287 286 285 284 283 282 281 280 278 276 274 273 272 270 269 269 268
282 283 284 286 287 288 289 289 291 292 293 293 294 294 294 294 294 293 293 292 291 290 289 288 288 288 287 287 287 286 285 284 283 282 280 277 275 274 273 271 269 268 267
283 284 286 287 288 289 290 291 292 293 293 293 293 294 294 295 295 295 295 294 293 292 290 289 289 289 289 289 288 288 286 285 285 283 281 279 277 275 273 272 270 267 265
285 286 287 289 290 290 291 292 292 293 293 293 293 294 294 295 296 297 297 296 295 292 291 290 290 290 290 290 290 290 288 287 286 285 282 279 277 275 273 271 270 267 265
287 288 289 290 291 291 292 292 293 293 293 293 293 294 295 295 296 297 297 297 296 294 292 291 290 291 291 291 291 291 290 290 288 285 282 281 278 276 274 272 270 268 266
288 289 290 291 291 292 292 292 293 294 293 293 293 294 295 296 297 297 297 297 296 296 296 294 292 292 293 292 293 293 292 291 289 287 285 283 279 277 277 275 273 272 269
289 290 290 291 291 291 292 293 293 293 293 294 294 295 296 296 296 296 297 297 296 296 296 296 294 293 294 294 294 294 293 292 290 288 286 283 280 278 279 279 277 274 271
288 290 291 291 291 291 292 293 293 293 294 295 296 296 296 296 296 295 296 296 296 296 296 297 296 295 295 295 295 295 295 293 290 289 285 282 280 280 280 280 277 275 273
289 290 291 291 291 291 292 293 294 294 295 296 296 296 297 296 296 296 296 295 296 296 297 298 298 296 295 294 296 297 296 294 291 288 284 281 282 283 282 279 277 277 274
289 290 291 291 291 292 293 293 295 296 297 297 297 297 297 296 297 297 296 295 295 296 297 298 298 297 295 294 296 298 297 295 291 288 286 283 283 284 283 279 277 277 271
288 289 290 291 291 292 293 294 295 296 297 297 297 297 297 296 297 297 296 294 294 294 296 298 298 296 294 293 295 298 298 297 291 288 286 282 280 279 278 274 273 274 271
288 289 289 290 290 292 293 293 294 295 297 298 297 297 296 296 296 297 296 294 293 293 295 296 297 296 296 295 295 296 297 295 290 288 286 279 277 279 276 271 269 272 273
289 288 288 289 290 292 293 293 294 296 297 297 297 297 296 295 294 295 294 293 292 293 294 295 296 298 297 294 293 295 297 294 290 286 283 279 278 277 270 265 265 265 271
288 288 288 289 290 292 292 292 293 295 296 297 297 296 295 293 293 293 292 291 291 292 292 293 295 296 295 293 293 293 294 291 291 287 279 277 276 273 266 264 272 273 274
288 287 287 289 290 291 292 292 293 294 295 296 296 295 293 292 292 293 292 291 291 292 292 292 292 292 290 291 292 291 289 286 284 281 273 270 267 264 262 259 268 274 275
287 287 288 289 290 291 292 293 293 293 293 294 294 294 292 292 292 294 292 291 291 291 291 291 290 289 288 289 289 287 285 282 275 270 260 257 261 264 265 267 275 281 283
Height
5804 5804 5804 5804 5803 5803 5802 5802 5801 5800 5799 5798 5797 5796 5795 5794 5793 5792 5791 5790 5788 5787 5786 5785 5784 5783 5782 5781 5780 5779 5778 5777 5776 5775 5775 5774 5773 5772 5772 5771 5771 5771 5770
5798 5798 5797 5797 5796 5796 5795 5794 5794 5793 5792 5791 5790 5788 5787 5786 5784 5783 5782 5780 5779 5778 5777 5775 5774 5773 5772 5771 5770 5769 5767 5766 5766 5765 5764 5763 5762 5762 5761 5760 5760 5760 5760
5791 5791 5791 5790 5789 5789 5788 5787 5786 5785 5784 5782 5781 5780 5778 5776 5775 5773 5772 5770 5769 5768 5766 5765 5763 5762 5761 5760 5758 5757 5756 5755 5754 5753 5752 5752 5751 5750 5750 5749 5749 5749 5749
5784 5784 5784 5783 5782 5781 5780 5779 5777 5776 5775 5773 5772 5770 5768 5766 5765 5763 5761 5760 5758 5756 5755 5753 5752 5750 5749 5747 5746 5745 5744 5742 5741 5740 5740 5739 5738 5738 5738 5737 5737 5737 5737
5777 5776 5776 5775 5774 5773 5771 5770 5768 5767 5765 5763 5761 5760 5758 5756 5754 5752 5750 5748 5746 5744 5742 5741 5739 5737 5735 5734 5732 5731 5730 5729 5728 5727 5726 5725 5725 5724 5724 5724 5724 5724 5724
5769 5769 5768 5767 5765 5764 5762 5760 5759 5756 5754 5752 5750 5749 5747 5744 5742 5740 5738 5736 5733 5731 5729 5727 5725 5723 5721 5719 5717 5716 5714 5713 5712 5712 5711 5710 5710 5710 5710 5709 5709 5709 5709
5761 5760 5759 5758 5756 5755 5753 5750 5748 5746 5743 5740 5738 5737 5736 5733 5730 5727 5725 5722 5720 5717 5715 5712 5710 5708 5706 5704 5701 5700 5698 5696 5695 5694 5694 5694 5693 5693 5693 5693 5694 5694 5694
5752 5751 5750 5748 5747 5745 5743 5740 5737 5735 5732 5728 5725 5723 5722 5722 5719 5715 5711 5708 5706 5703 5700 5697 5694 5691 5689 5687 5685 5682 5680 5678 5677 5676 5676 5675 5675 5675 5675 5676 5676 5677 5677
5743 5742 5740 5739 5737 5734 5732 5729 5726 5723 5720 5717 5712 5708 5706 5705 5704 5703 5698 5694 5690 5687 5684 5680 5677 5674 5671 5668 5665 5663 5660 5659 5657 5656 5656 5655 5655 5655 5655 5656 5657 5658 5659
5733 5731 5730 5728 5726 5724 5721 5718 5715 5711 5707 5704 5701 5696 5691 5688 5685 5685 5685 5680 5675 5671 5667 5663 5660 5656 5652 5649 5646 5643 5640 5638 5636 5635 5634 5634 5634 5634 5635 5636 5637 5638 5639
5722 5721 5719 5717 5715 5713 5710 5706 5703 5699 5695 5691 5687 5683 5678 5674 5670 5666 5666 5665 5660 5655 5650 5646 5642 5638 5633 5630 5627 5624 5620 5617 5615 5614 5613 5612 5613 5613 5613 5614 5616 5617 5619
5712 5711 5708 5706 5703 5700 5697 5694 5690 5686 5682 5677 5673 5668 5664 5660 5656 5650 5647 5646 5644 5640 5634 5629 5624 5620 5616 5612 5609 5605 5602 5598 5595 5593 5592 5591 5591 5592 5592 5593 5594 5596 5598
5702 5700 5697 5695 5692 5688 5685 5681 5677 5673 5668 5663 5659 5655 5650 5646 5640 5635 5630 5628 5626 5624 5619 5614 5608 5604 5600 5595 5592 5588 5584 5581 5577 5574 5573 5572 5572 5572 5573 5574 5575 5576 5578
5692 5689 5686 5683 5679 5675 5672 5668 5664 5659 5654 5650 5645 5641 5637 5632 5626 5620 5615 5610 5607 5607 5605 5600 5594 5589 5584 5580 5576 5572 5568 5565 5561 5558 5556 5555 5555 5555 5556 5557 5557 5559 5560
5680 5677 5674 5670 5666 5662 5658 5654 5649 5645 5640 5635 5631 5627 5622 5618 5612 5606 5601 5595 5590 5588 5590 5587 5581 5575 5570 5566 5562 5558 5554 5550 5547 5544 5542 5541 5541 5541 5542 5542 5543 5544 5545
5668 5665 5662 5657 5653 5649 5644 5640 5635 5630 5625 5621 5617 5613 5608 5604 5599 5593 5588 5583 5577 5572 5572 5572 5567 5562 5557 5553 5549 5544 5541 5537 5534 5532 5530 5529 5529 5529 5530 5530 5530 5530 5532
5656 5652 5648 5644 5639 5635 5630 5626 5621 5616 5612 5608 5604 5599 5595 5590 5585 5580 5575 5570 5566 5560 5557 5557 5553 5549 5545 5541 5537 5533 5529 5526 5523 5522 5520 5519 5519 5519 5519 5519 5518 5519 5520
5643 5639 5634 5630 5626 5621 5617 5612 5608 5604 5599 5595 5591 5586 5581 5576 5572 5567 5563 5558 5554 5549 5545 5543 5541 5537 5534 5530 5526 5523 5519 5516 5514 5512 5511 5510 5510 5510 5510 5509 5509 5510 5510
5629 5625 5621 5616 5612 5608 5604 5600 5595 5591 5587 5582 5578 5573 5568 5563 5559 5555 5551 5546 5542 5538 5534 5531 5529 5526 5523 5520 5516 5514 5511 5508 5506 5504 5503 5503 5502 5502 5502 5502 5503 5503 5504
5615 5611 5607 5603 5599 5595 5591 5587 5583 5579 5574 5570 5565 5560 5555 5551 5546 5542 5539 5535 5531 5528 5525 5521 5519 5517 5514 5511 5508 5506 5504 5501 5499 5498 5497 5496 5496 5497 5497 5497 5497 5498 5499
5602 5598 5594 5590 5586 5582 5578 5574 5571 5566 5562 5558 5553 5548 5543 5538 5534 5530 5527 5524 5521 5518 5515 5512 5511 5509 5506 5504 5501 5499 5497 5496 5494 5492 5492 5491 5492 5492 5492 5492 5493 5493 5495
5589 5585 5581 5578 5574 5570 5566 5562 5558 5554 5550 5546 5541 5536 5532 5527 5523 5520 5517 5514 5511 5509 5507 5505 5503 5501 5499 5497 5495 5493 5492 5490 5489 5489 5487 5488 5488 5489 5489 5489 5490 5491 5492
5576 5572 5568 5565 5562 5558 5554 5550 5546 5542 5538 5533 5529 5525 5520 5517 5513 5510 5508 5506 5503 5501 5499 5497 5496 5494 5492 5491 5489 5489 5487 5485 5485 5485 5484 5485 5485 5486 5486 5487 5488 5489 5490
5563 5559 5556 5553 5550 5546 5542 5538 5534 5530 5526 5522 5517 5513 5510 5507 5504 5501 5499 5498 5496 5494 5492 5490 5489 5488 5486 5485 5484 5483 5482 5482 5482 5481 5481 5482 5483 5484 5485 5486 5486 5487 5488
5550 5547 5544 5541 5538 5534 5530 5526 5522 5519 5515 5511 5507 5503 5500 5498 5496 5493 5492 5490 5490 5488 5486 5484 5483 5482 5481 5480 5479 5479 5479 5479 5479 5479 5479 5480 5481 5482 5484 5485 5485 5486 5486
5538 5535 5532 5529 5526 5522 5518 5514 5510 5507 5505 5502 5498 5495 5492 5490 5488 5486 5484 5483 5483 5482 5480 5479 5478 5477 5477 5476 5476 5476 5476 5476 5476 5477 5478 5479 5480 5480 5482 5484 5484 5484 5484